Location: F?ge?el
(45.8833°N, 22.5833°E)
Time: 04:49:27
(UTC+00:00)

Cosmos 2278 Rocket - Pass Details

Date: 17 November 2025
Orbit: 841 x 843 km, 71.0° (Epoch: 04 December)

Event Time Altitude Azimuth Distance (km) Brightness Sun altitude
Rises 17:52:14 0° 247° (WSW) 3,391 6.3 -30.5°
Reaches altitude 10° 17:55:12 10° 262° (W) 2,460 5.5 -31.0°
Maximum altitude 17:59:35 23° 313° (NW) 1,737 4.2 -31.7°
Enters shadow 18:02:45 15° 355° (N) 2,146 4.4 -32.3°
